STARLINK-32484 (62160 NORAD) Tracking and Keplerian Element Data

This shows tracking and keplerian element data for the satellite.

Feedback or suggestion? Click here.




ElementValue
Catalog62160
NameSTARLINK-32484
Epoch Orbit1142
Epoch Day34.98515639
Epoch Year2025
RAAN256.6619
Inclination42.999
Eccentricity0.0001158
Argument of Perigee269.8944
Mean Anonmoly90.1776
Mean Motion15.3209267
Decay Rate-6.42E-06
L11 62160U 24224X 25034.98515639 -.00000642 00000+0 -11593-4 0 9995
L22 62160 42.9990 256.6619 0001158 269.8944 90.1776 15.32092670 11425



Live tracking and technical data element details for STARLINK-32484 (NORAD 62160). STARLINK-32484 can be tracked NOW for your location showing map with azimuth and elevation plus other details from your city location.







IsCatalogInMostPopularTable: catalog: 62160, numindb: 16
Update: records affected: 1



GetName: 62160 STARLINK-32484

Hit Count: updated at: Sun, 18 May 2025 22:21:15 GMT